Location: Edinburgh
(55.9500°N, 3.1600°W)
Time: 13:25:16
(UTC+01:00)

Vanguard 1 - Visible Passes

Search period start: 21 October 2017 00:00
Search period end: 30 October 2017 23:00
Orbit: 650 x 3834 km, 34.3° (Epoch: 20 October)

Date Brightness Start Highest point End Pass type
(mag) Time Alt. Az. Time Alt. Az. Time Alt. Az.
21 Oct 13.1 02:24:46 32° SSE 02:24:46 32° SSE 02:40:14 10° ESE visible
21 Oct 13.0 04:37:29 31° SW 04:44:19 37° S 05:04:00 10° SE visible
21 Oct 13.6 06:50:56 10° WSW 07:06:39 27° SSW 07:23:21 10° SSE visible
22 Oct 13.8 00:31:54 14° ESE 00:31:54 14° ESE 00:34:39 10° E visible
22 Oct 13.1 02:44:37 34° SSE 02:44:37 34° SSE 03:01:14 10° ESE visible
22 Oct 13.0 04:57:20 28° SW 05:04:58 35° SSW 05:24:16 10° SE visible
22 Oct 13.6 07:12:39 10° WSW 07:27:00 23° SW 07:42:09 10° S visible
23 Oct 13.7 00:51:46 16° ESE 00:51:46 16° ESE 00:56:20 10° ESE visible
23 Oct 13.0 03:04:29 35° SSE 03:04:29 35° SSE 03:22:05 10° ESE visible
23 Oct 13.1 05:17:12 25° SW 05:25:37 33° SSW 05:44:16 10° SE visible
24 Oct 13.6 01:11:40 19° ESE 01:11:40 19° ESE 01:17:43 10° ESE visible
24 Oct 13.0 03:24:24 36° S 03:24:24 36° S 03:42:45 10° SE visible
24 Oct 13.2 05:37:07 21° WSW 05:46:12 29° SSW 06:03:55 10° SSE visible
25 Oct 13.5 01:31:36 21° SE 01:31:36 21° SE 01:38:55 10° ESE visible
25 Oct 13.0 03:44:19 35° S 03:44:37 35° S 04:03:14 10° SE visible
25 Oct 13.3 05:57:03 18° WSW 06:06:44 25° SSW 06:23:09 10° SSE visible
26 Oct 13.4 01:51:35 23° SE 01:51:35 23° SE 01:59:55 10° ESE visible
26 Oct 13.0 04:04:19 32° SSW 04:05:18 33° S 04:23:28 10° SE visible
26 Oct 13.4 06:17:03 14° WSW 06:27:11 21° SW 06:41:47 10° S visible
27 Oct 13.4 02:11:36 25° SE 02:11:36 25° SE 02:20:46 10° ESE visible
27 Oct 13.0 04:24:20 30° SSW 04:25:58 30° SSW 04:43:24 10° SSE visible
27 Oct 13.5 06:37:04 10° WSW 06:47:34 17° SW 06:59:31 10° S visible
28 Oct 13.3 02:31:40 26° SSE 02:31:40 26° SSE 02:41:26 10° SE visible
28 Oct 13.1 04:44:24 26° SSW 04:46:37 27° SSW 05:02:59 10° SSE visible
28 Oct 13.7 07:00:53 10° WSW 07:07:52 13° SW 07:15:23 10° SSW visible
29 Oct 13.3 01:51:45 26° SSE 01:51:45 26° SSE 02:01:53 10° SE visible
29 Oct 13.2 04:04:29 22° SW 04:07:13 23° SSW 04:22:05 10° SSE visible
30 Oct 13.3 02:11:53 25° SSE 02:11:53 25° SSE 02:22:05 10° SE visible
30 Oct 13.4 04:24:37 18° SW 04:27:45 19° SSW 04:40:28 10° S visible
